Location: Fort Worth, Tx
(32.7431°N, 97.3695°W)
Time: 06:12:15
(UTC-05:00)

Tiros 1 - Pass Details

Date: 22 November 2024
Orbit: 622 x 653 km, 48.4° (Epoch: 05 December)

Event Time Altitude Azimuth Distance (km) Brightness Sun altitude
Rises 19:27:20 0° 317° (NW) 2,953 10.9 -13.2°
Reaches altitude 10° 19:30:15 10° 335° (NNW) 2,047 9.8 -13.8°
Maximum altitude 19:33:41 20° 22° (NNE) 1,512 8.7 -14.5°
Enters shadow 19:34:50 18° 41° (NE) 1,582 8.7 -14.7°
